EW5391 Weather Reports


time (UTC)temp
C
wind
direction
speed
KPH
gust
KPH
rain 1hr
cm
rain 24hr
cm
rain mn
cm
humidity
%
barometer
mb
20260510175536 25 135 3.2 4.8 0.00 0.10 0.00 61 1012.6
20260510174516 25 135 6.4 11.3 0.00 0.10 0.00 60 1012.7
20260510173515 25 248 1.6 3.2 0.00 0.10 0.00 62 1012.6
20260510172536 24 135 3.2 4.8 0.00 0.10 0.00 63 1012.6
20260510171516 24 180 4.8 9.7 0.00 0.10 0.00 61 1012.7
20260510170515 23 180 3.2 6.4 0.00 0.10 0.00 62 1012.7
20260510165515 23 158 6.4 11.3 0.00 0.10 0.00 64 1012.9
20260510164515 23 180 3.2 9.7 0.00 0.10 0.00 67 1013.0
20260510163516 23 135 11.3 19.3 0.00 0.10 0.00 68 1013.1
20260510162515 23 180 4.8 12.9 0.00 0.10 0.00 68 1013.2
20260510161516 22 203 3.2 6.4 0.00 0.10 0.00 72 1013.1
20260510160516 22 225 3.2 6.4 0.00 0.10 0.00 73 1013.1
20260510155515 21 180 3.2 9.7 0.00 0.10 0.00 81 1013.1
20260510154636 18 0.0 0.0 0.00 0.10 0.00 90 1013.2
20260510153515 17 90 12.9 14.5 0.00 0.10 0.00 89 1013.2
20260510152516 17 45 8.0 8.0 0.00 0.10 0.00 89 1013.3
20260510151515 17 45 8.0 8.0 0.00 0.10 0.00 90 1013.2
20260510150515 16 45 6.4 8.0 0.00 0.10 0.00 90 1013.0
20260510145515 16 45 9.7 9.7 0.00 0.10 0.00 90 1013.0
20260510144515 16 45 8.0 9.7 0.00 0.10 0.00 91 1012.8
20260510143515 16 45 8.0 9.7 0.00 0.10 0.00 90 1012.7
20260510142515 16 45 6.4 8.0 0.00 0.10 0.00 89 1012.7
20260510141515 16 23 4.8 6.4 0.00 0.10 0.00 90 1012.8
20260510140535 16 23 4.8 6.4 0.00 0.10 0.00 90 1012.9
20260510135515 16 23 4.8 6.4 0.00 0.10 0.00 90 1012.8
20260510134515 16 23 4.8 6.4 0.00 0.10 0.00 90 1012.6
20260510133515 16 23 4.8 4.8 0.00 0.10 0.00 90 1012.6
20260510132515 16 23 3.2 4.8 0.00 0.10 0.00 90 1012.8
20260510131515 16 23 1.6 3.2 0.00 0.10 0.00 91 1012.9
20260510130535 16 23 1.6 3.2 0.00 0.10 0.00 92 1012.9
20260510125515 16 23 4.8 4.8 0.00 0.10 0.00 92 1013.0
20260510124516 15 315 3.2 4.8 0.00 0.10 0.00 92 1013.0
20260510123515 15 338 4.8 6.4 0.00 0.10 0.00 92 1013.0
20260510122515 15 315 4.8 6.4 0.00 0.10 0.00 93 1013.0
20260510121515 15 315 3.2 6.4 0.00 0.10 0.00 93 1012.8
20260510120535 15 293 3.2 3.2 0.00 0.10 0.00 94 1012.7
20260510115515 15 293 3.2 4.8 0.00 0.10 0.00 94 1012.6
20260510114535 15 293 3.2 4.8 0.00 0.10 0.00 94 1012.5
20260510113515 15 315 6.4 6.4 0.00 0.10 0.00 94 1012.4
20260510112515 15 315 6.4 6.4 0.00 0.10 0.00 95 1012.2
20260510111535 15 315 6.4 9.7 0.00 0.10 0.00 95 1012.1
20260510110515 15 315 4.8 6.4 0.00 0.10 0.00 96 1011.9
20260510105515 14 0.0 0.0 0.00 0.10 0.00 95 1011.6
20260510104515 14 0.0 1.6 0.00 0.10 0.00 95 1011.4
20260510103515 14 0.0 0.0 0.00 0.10 0.00 95 1011.3
20260510102555 14 0.0 0.0 0.00 0.10 0.00 95 1011.2
20260510101516 14 0.0 0.0 0.00 0.10 0.00 95 1011.1
20260510100515 15 0 3.2 4.8 0.00 0.10 0.00 95 1011.2
20260510095517 15 315 8.0 9.7 0.00 0.10 0.00 96 1011.2
20260510094537 14 315 6.4 8.0 0.00 0.10 0.00 96 1011.2
20260510093517 14 338 8.0 9.7 0.00 0.10 0.00 97 1011.3
20260510092517 14 338 9.7 12.9 0.00 0.10 0.00 97 1011.0
20260510091517 13 0.0 1.6 0.00 0.10 0.00 96 1011.0
20260510090516 13 0.0 0.0 0.00 0.10 0.00 96 1010.7
20260510085517 13 293 3.2 6.4 0.00 0.10 0.00 97 1010.7
20260510084537 13 0.0 3.2 0.00 0.10 0.00 96 1010.6
20260510083557 13 270 3.2 4.8 0.00 0.10 0.00 96 1010.5
20260510082537 13 225 1.6 3.2 0.00 0.10 0.00 96 1010.4
20260510081517 13 0.0 0.0 0.00 0.10 0.00 95 1010.2
20260510080537 13 180 3.2 4.8 0.00 0.10 0.00 96 1009.9
20260510075536 13 0.0 1.6 0.00 0.10 0.00 96 1009.8
20260510074517 13 158 1.6 1.6 0.00 0.10 0.00 96 1009.8
20260510073516 13 0.0 0.0 0.00 0.10 0.00 96 1009.8
20260510072517 13 0.0 1.6 0.00 0.10 0.00 95 1009.7
20260510071516 13 0.0 1.6 0.00 0.10 0.00 96 1009.6
20260510070517 13 0.0 1.6 0.00 0.10 0.00 95 1009.7
20260510065537 13 0.0 0.0 0.00 0.10 0.00 95 1009.6
20260510064516 14 0.0 1.6 0.00 0.10 0.00 95 1009.6
20260510063537 14 0.0 1.6 0.00 0.10 0.00 95 1009.5
20260510062516 14 113 1.6 3.2 0.00 0.10 0.00 95 1009.6
20260510061516 14 0.0 1.6 0.00 0.10 0.00 95 1009.4
20260510060516 14 0.0 0.0 0.00 0.10 0.00 94 1009.4
20260510055516 14 0.0 1.6 0.00 0.10 0.00 94 1009.5
20260510054536 14 0.0 0.0 0.00 0.10 0.00 94 1009.6
20260510053537 14 0.0 0.0 0.00 0.10 0.00 94 1009.6
20260510052516 15 0.0 0.0 0.00 0.10 0.00 94 1009.7
20260510051516 15 0.0 0.0 0.00 0.10 0.00 94 1009.7
20260510050516 15 0.0 1.6 0.00 0.10 0.00 94 1009.8
20260510045516 15 0.0 1.6 0.00 0.10 0.00 93 1009.9
20260510044516 15 0.0 0.0 0.00 0.10 0.00 92 1009.9
20260510043516 15 0.0 0.0 0.00 0.10 0.00 92 1009.8
20260510042516 16 0.0 0.0 0.00 0.10 0.00 92 1009.7
20260510041516 16 0.0 0.0 0.00 0.10 0.00 92 1009.7
20260510040516 16 0.0 0.0 0.00 0.10 0.00 92 1009.6
20260510035518 16 0.0 0.0 0.00 0.10 0.10 92 1009.6
20260510034515 16 0.0 0.0 0.00 0.10 0.10 91 1009.7
20260510033515 16 0.0 0.0 0.00 0.10 0.10 90 1009.5
20260510032536 16 0.0 0.0 0.00 0.10 0.10 88 1009.5
20260510031515 16 0.0 3.2 0.00 0.10 0.10 88 1009.4
20260510030515 17 113 1.6 3.2 0.00 0.10 0.10 87 1009.3
20260510025556 17 113 1.6 4.8 0.00 0.10 0.10 87 1009.3
20260510024515 17 0.0 1.6 0.00 0.10 0.10 87 1009.4
20260510023515 17 113 1.6 3.2 0.00 0.10 0.10 87 1009.4
20260510022535 17 113 4.8 6.4 0.00 0.10 0.10 87 1009.4
20260510021535 17 113 4.8 6.4 0.00 0.10 0.10 87 1009.4
20260510020515 17 90 4.8 6.4 0.00 0.10 0.10 88 1009.3
20260510015515 17 90 4.8 6.4 0.00 0.10 0.10 90 1009.2
20260510014515 16 0.0 1.6 0.00 0.10 0.10 91 1009.1
20260510013515 16 0.0 0.0 0.00 0.10 0.10 90 1009.0
20260510012515 17 0.0 0.0 0.00 0.10 0.10 90 1009.0
20260510011518 16 0.0 0.0 0.00 0.10 0.10 89 1008.9
20260510010515 16 0.0 0.0 0.00 0.10 0.10 88 1008.9
20260510005515 17 0.0 0.0 0.00 0.10 0.10 88 1008.8
20260510004515 17 0.0 0.0 0.00 0.10 0.10 87 1008.8
20260510003515 17 0.0 0.0 0.00 0.10 0.10 87 1008.6
20260510002515 17 0.0 1.6 0.00 0.10 0.10 87 1008.6
20260510001536 17 0.0 0.0 0.00 0.10 0.10 88 1008.6
20260510000515 17 0.0 0.0 0.00 0.10 0.10 88 1008.5
20260509235515 18 0.0 0.0 0.00 0.10 0.10 87 1008.4
20260509234515 18 0.0 0.0 0.00 0.10 0.10 86 1008.3
20260509233515 18 0.0 0.0 0.00 0.10 0.10 86 1008.2
20260509232515 18 0.0 0.0 0.00 0.10 0.10 87 1008.1
20260509231535 18 0.0 1.6 0.00 0.10 0.10 87 1008.1
20260509230517 18 0.0 1.6 0.00 0.10 0.10 89 1008.2
20260509225517 18 23 3.2 4.8 0.00 0.10 0.10 89 1008.0
20260509224517 18 23 4.8 6.4 0.00 0.10 0.10 88 1008.1
20260509223537 18 23 1.6 4.8 0.00 0.10 0.10 88 1008.2
20260509222517 18 23 4.8 6.4 0.00 0.10 0.10 88 1008.2
20260509221517 18 23 6.4 8.0 0.00 0.10 0.10 87 1008.1
20260509220517 18 45 6.4 8.0 0.03 0.10 0.10 87 1008.1
20260509215537 18 23 4.8 6.4 0.03 0.10 0.10 87 1008.1
20260509214517 18 23 8.0 9.7 0.03 0.10 0.10 86 1008.2
20260509213517 18 45 8.0 11.3 0.03 0.10 0.10 88 1008.2
20260509212517 18 45 9.7 11.3 0.03 0.10 0.10 89 1008.1
20260509211537 18 45 9.7 11.3 0.03 0.10 0.10 88 1008.0
20260509210517 18 45 6.4 8.0 0.00 0.08 0.08 87 1007.9
20260509205537 18 45 8.0 8.0 0.00 0.08 0.08 86 1007.9
20260509204517 18 45 6.4 9.7 0.00 0.08 0.08 86 1007.8
20260509203516 17 45 6.4 8.0 0.00 0.08 0.08 86 1008.1
20260509202517 18 23 11.3 14.5 0.00 0.08 0.08 85 1008.3
20260509201517 18 0 8.0 9.7 0.00 0.08 0.08 85 1008.3
20260509200518 18 45 3.2 3.2 0.00 0.08 0.08 83 1008.3
20260509195517 18 45 3.2 4.8 0.03 0.08 0.08 83 1008.5
20260509194537 18 158 1.6 3.2 0.08 0.08 0.08 84 1008.5
20260509193516 18 158 1.6 3.2 0.08 0.08 0.08 85 1008.6
20260509192518 18 158 1.6 4.8 0.08 0.08 0.08 86 1008.6
20260509191516 17 158 1.6 3.2 0.08 0.08 0.08 87 1008.8
20260509190518 17 0.0 0.0 0.08 0.08 0.08 85 1009.5
20260509185516 17 315 6.4 8.0 0.05 0.05 0.05 82 1009.7
20260509184538 18 23 3.2 4.8 0.00 0.00 0.00 83 1009.6
20260509183516 18 45 4.8 6.4 0.00 0.00 0.00 81 1009.4
20260509182538 18 23 9.7 14.5 0.00 0.00 0.00 77 1009.5
20260509181516 20 293 3.2 3.2 0.00 0.00 0.00 72 1009.6
20260509180518 20 203 1.6 4.8 0.00 0.00 0.00 71 1009.7